Location: Texas Valley
(42.4862°N, 75.9730°W)
Time: 00:10:30
(UTC+00:00)

Tiangong - Pass Details

Date: 21 April 2024
Orbit: 372 x 375 km, 41.5° (Epoch: 20 May)

Event Time Altitude Azimuth Distance (km) Brightness Sun altitude
Rises 01:19:52 0° 261° (W) 2,257 2.5 -15.5°
Reaches altitude 10° 01:21:57 10° 259° (W) 1,399 1.4 -15.8°
Maximum altitude 01:25:06 72° 175° (S) 403 -2.3 -16.3°
Enters shadow 01:25:48 49° 108° (ESE) 500 -2.0 -16.4°
